TimeCST,TemperatureF,Dew PointF,Humidity,Sea Level PressureIn,VisibilityMPH,Wind Direction,Wind SpeedMPH,Gust SpeedMPH,PrecipitationIn,Events,Conditions,WindDirDegrees,DateUTC
12:53 AM,46.0,36.0,68,30.37,10.0,ESE,8.1,-,N/A,,Overcast,120,2014-01-08 06:53:00
1:53 AM,46.9,37.0,68,30.35,10.0,ESE,12.7,-,N/A,,Overcast,120,2014-01-08 07:53:00
2:24 AM,48.2,37.4,66,30.34,10.0,SE,10.4,-,N/A,,Overcast,130,2014-01-08 08:24:00
2:53 AM,48.0,37.9,68,30.34,10.0,SE,11.5,-,N/A,,Overcast,130,2014-01-08 08:53:00
3:53 AM,48.9,39.9,71,30.32,10.0,SE,11.5,-,N/A,,Overcast,130,2014-01-08 09:53:00
4:53 AM,50.0,43.0,77,30.30,10.0,SE,13.8,20.7,N/A,,Overcast,130,2014-01-08 10:53:00
5:53 AM,50.0,45.0,83,30.27,10.0,SE,12.7,19.6,N/A,,Overcast,130,2014-01-08 11:53:00
6:53 AM,52.0,45.0,77,30.27,10.0,ESE,10.4,-,N/A,,Overcast,120,2014-01-08 12:53:00
7:53 AM,53.1,45.0,74,30.29,10.0,ESE,10.4,-,N/A,,Overcast,120,2014-01-08 13:53:00
8:53 AM,54.0,46.0,75,30.30,10.0,SE,17.3,23.0,N/A,,Overcast,130,2014-01-08 14:53:00
9:53 AM,55.9,46.0,69,30.31,10.0,SE,13.8,-,N/A,,Overcast,130,2014-01-08 15:53:00
10:53 AM,54.0,50.0,86,30.31,6.0,SE,13.8,21.9,0.00,Rain,Light Rain,130,2014-01-08 16:53:00
11:22 AM,53.6,51.8,94,30.28,10.0,SE,13.8,18.4,0.00,,Overcast,130,2014-01-08 17:22:00
11:53 AM,54.0,51.1,90,30.27,3.0,SE,12.7,20.7,0.00,Rain,Light Rain,130,2014-01-08 17:53:00
12:01 PM,53.6,51.8,94,30.26,2.5,SE,15.0,-,0.00,Rain,Light Rain,130,2014-01-08 18:01:00
12:03 PM,53.6,51.8,94,30.26,3.0,ESE,10.4,19.6,0.00,Rain,Light Rain,120,2014-01-08 18:03:00
12:53 PM,55.0,52.0,89,30.23,5.0,SE,16.1,23.0,0.00,,Overcast,130,2014-01-08 18:53:00
1:02 PM,55.4,51.8,88,30.22,4.0,SE,13.8,-,0.00,Rain,Light Rain,130,2014-01-08 19:02:00
1:21 PM,55.4,51.8,88,30.20,2.5,SE,16.1,25.3,0.00,Rain,Light Rain,130,2014-01-08 19:21:00
1:29 PM,55.4,51.8,88,30.20,3.0,SE,18.4,24.2,0.00,,Overcast,130,2014-01-08 19:29:00
1:45 PM,55.4,51.8,88,30.20,2.5,SE,17.3,24.2,0.00,Rain,Light Rain,130,2014-01-08 19:45:00
1:53 PM,55.0,52.0,89,30.21,2.5,SE,17.3,23.0,0.00,Rain,Light Rain,130,2014-01-08 19:53:00
2:01 PM,55.4,51.8,88,30.20,4.0,SE,13.8,25.3,0.00,Rain,Light Rain,130,2014-01-08 20:01:00
2:40 PM,55.4,51.8,88,30.20,2.5,SE,12.7,-,0.00,Rain,Light Rain,130,2014-01-08 20:40:00
2:53 PM,55.0,53.1,93,30.21,2.5,ESE,11.5,-,0.00,Rain,Light Rain,120,2014-01-08 20:53:00
3:45 PM,55.4,53.6,94,30.19,3.0,SE,12.7,-,0.01,Rain,Light Rain,130,2014-01-08 21:45:00
3:53 PM,55.0,53.1,93,30.19,3.0,SE,11.5,-,0.01,,Overcast,130,2014-01-08 21:53:00
4:04 PM,55.4,53.6,94,30.18,2.5,SE,12.7,-,N/A,,Overcast,130,2014-01-08 22:04:00
4:26 PM,55.4,53.6,94,30.16,3.0,SE,17.3,24.2,0.00,Rain,Light Rain,130,2014-01-08 22:26:00
4:39 PM,55.4,53.6,94,30.17,2.5,ESE,15.0,20.7,0.00,Rain,Light Rain,120,2014-01-08 22:39:00
4:48 PM,55.4,53.6,94,30.17,5.0,SE,13.8,-,0.00,,Overcast,130,2014-01-08 22:48:00
4:53 PM,55.0,53.1,93,30.18,7.0,SE,15.0,23.0,0.00,,Overcast,130,2014-01-08 22:53:00
5:15 PM,55.4,51.8,88,30.18,8.0,SE,12.7,-,N/A,,Overcast,130,2014-01-08 23:15:00
5:35 PM,55.4,51.8,88,30.18,10.0,SE,11.5,-,N/A,,Overcast,130,2014-01-08 23:35:00
5:53 PM,55.9,52.0,87,30.19,10.0,SE,10.4,18.4,N/A,,Overcast,130,2014-01-08 23:53:00
6:53 PM,55.9,53.1,90,30.19,6.0,SE,12.7,-,0.00,Rain,Light Rain,130,2014-01-09 00:53:00
7:53 PM,55.9,53.1,90,30.21,10.0,ESE,8.1,-,0.00,,Overcast,120,2014-01-09 01:53:00
8:53 PM,57.0,54.0,89,30.21,10.0,ESE,13.8,19.6,N/A,,Overcast,120,2014-01-09 02:53:00
9:53 PM,57.0,54.0,89,30.21,9.0,ESE,11.5,-,N/A,,Overcast,120,2014-01-09 03:53:00
10:53 PM,55.9,53.1,90,30.20,8.0,East,6.9,-,N/A,,Overcast,100,2014-01-09 04:53:00
11:53 PM,55.0,53.1,93,30.19,9.0,ESE,5.8,-,0.00,,Overcast,110,2014-01-09 05:53:00